Weather in Yasnopolyanskoe

Russia / Republic of Crimea     45°56′30″N   34°21′00″E
temp.,
°C
wind,
m/s
gust,
m/s
humid.,
%
clouds,
%
prec.,
mm/h
press.,
hPa
HPBL,
m
16 june, wed
wed1600:00+17wsw58874 0.1 1009382
03:00+16sw4787100 0.1 1010284
06:00+16sw35825 0.0 1010203
09:00+19ssw22660 0.0 1011667
12:00+22nw02524 0.0 1011804
15:00+21ne436016 0.0 1011443
18:00+22nnw34535 0.0 1010476
21:00+21w5664100 0.0 1011234
17 june, thu
thu1700:00+21nw7969100 0.0 1010336
03:00+20nnw81171100 0.0 1010375
06:00+18n6791100 2.8 1010303
09:00+18n101392100 22.6 1009864
12:00+19n101393100 3.9 1009682
15:00+23ene81178100 8.8 1009924
18:00+22ene91180100 1.1 1010880
21:00+21nne91277100 1.1 1011775
18 june, fri
fri1800:00+20nne101483100 0.0 1010758
03:00+20nne111288100 0.3 1009837
06:00+20e11138676 1.1 1010885
09:00+21ese798146 1.3 1012729
12:00+22ese12137991 1.4 10131029
15:00+22ese12137967 1.8 10141034
18:00+21ese11138187 0.2 1015869
21:00+20ese91385100 2.1 1017976
19 june, sat
sat1900:00+20ene6980100 2.4 1017548
03:00+21ene688185 2.4 1016501
06:00+21ene798413 0.0 1016521
09:00+22ene887991 0.0 1016855
12:00+22ene887628 0.0 1016844
15:00+22e89774 0.0 1015497
18:00+23e6107899 0.0 1015457
21:00+23ene8137899 0.0 1014461
20 june, sun
sun2000:00+23ene9148037 0.1 1014518
03:00+20ne7128095 3.3 1013434
06:00+22ene81278100 2.3 1012664
09:00+23e91070100 2.6 1012895
12:00+23e1010685 0.0 1012765
15:00+23e997010 0.0 1012635
18:00+23e78720 0.0 1012463
21:00+23e46790 0.0 1012179